This is the latest recevied weather packets stored in our database for station/object KC3VCX. If no packets are shown the sender has not sent any weather packets the latest 10 day(s).
| Time | Temp. | Humidity | Pressure | Rain* | Wind** | Luminosity | Snow |
|---|---|---|---|---|---|---|---|
| 1777207349 | 7.78° C | 89% | 1021.1 hPa | 0 mm | - | 163 W/m² | - |
| 1777207044 | 7.22° C | 90% | 1021.2 hPa | 0 mm | - | 120 W/m² | - |
| 1777206741 | 7.22° C | 91% | 1021.2 hPa | 0 mm | - | 102 W/m² | - |
| 1777206435 | 7.22° C | 92% | 1021 hPa | 0 mm | - | 103 W/m² | - |
| 1777206130 | 7.22° C | 92% | 1021 hPa | 0 mm | - | 98 W/m² | - |
| 1777205827 | 7.22° C | 93% | 1020.7 hPa | 0 mm | - | 89 W/m² | - |
| 1777205523 | 7.22° C | 93% | 1020.8 hPa | 0 mm | - | 74 W/m² | - |
| 1777205220 | 7.22° C | 93% | 1020.6 hPa | 0 mm | - | 73 W/m² | - |
| 1777204916 | 6.67° C | 93% | 1020.5 hPa | 0 mm | - | 55 W/m² | - |
| 1777204611 | 6.67° C | 93% | 1020.6 hPa | 0 mm | - | 48 W/m² | - |
| 1777204306 | 6.67° C | 93% | 1020.5 hPa | 0 mm | - | 34 W/m² | - |
| 1777204003 | 6.67° C | 93% | 1020.4 hPa | 0 mm | - | 31 W/m² | - |
| 1777203697 | 6.67° C | 93% | 1020.3 hPa | 0 mm | - | 26 W/m² | - |
| 1777203392 | 6.67° C | 93% | 1020.3 hPa | 0 mm | - | 24 W/m² | - |
| 1777203089 | 6.67° C | 93% | 1020.3 hPa | 0 mm | - | 23 W/m² | - |
| 1777202786 | 6.67° C | 93% | 1020.3 hPa | 0 mm | - | 28 W/m² | - |
| 1777202485 | 6.67° C | 93% | 1020 hPa | 0 mm | - | 29 W/m² | - |
| 1777202179 | 6.67° C | 93% | 1019.9 hPa | 0 mm | - | 26 W/m² | - |
| 1777201876 | 6.11° C | 93% | 1019.8 hPa | 0 mm | - | 21 W/m² | - |
| 1777201573 | 6.11° C | 93% | 1019.7 hPa | 0 mm | - | 16 W/m² | - |
| 1777201269 | 6.11° C | 93% | 1019.6 hPa | 0 mm | - | 13 W/m² | - |
| 1777200964 | 6.11° C | 93% | 1019.5 hPa | 0 mm | - | 9 W/m² | - |
| 1777200661 | 6.11° C | 93% | 1019.3 hPa | 0 mm | - | 7 W/m² | - |
| 1777200360 | 6.11° C | 93% | 1019.3 hPa | 0 mm | - | 5 W/m² | - |
| 1777200057 | 6.11° C | 93% | 1019.2 hPa | 0 mm | - | 4 W/m² | - |
* Rain latest hour (hover to see other rain measurements)
** Current wind speed in m/s (hover to see current wind gust speed)